This is the latest recevied weather packets stored in our database for station/object KO4WIL-13. If no packets are shown the sender has not sent any weather packets the latest 10 day(s).
| Time | Temp. | Humidity | Pressure | Rain* | Wind** | Luminosity | Snow |
|---|---|---|---|---|---|---|---|
| 1777739956 | 13.89° C | 47% | 967.5 hPa | 0 mm | - | - | - |
| 1777739654 | 13.33° C | 46% | 967.6 hPa | 0 mm | - | - | - |
| 1777739352 | 13.89° C | 46% | 967.7 hPa | 0 mm | - | - | - |
| 1777739050 | 13.89° C | 46% | 967.7 hPa | 0 mm | - | - | - |
| 1777738748 | 13.33° C | 46% | 967.7 hPa | 0 mm | - | - | - |
| 1777738446 | 13.33° C | 51% | 967.7 hPa | 0 mm | - | - | - |
| 1777738144 | 13.33° C | 47% | 967.8 hPa | 0 mm | - | - | - |
| 1777737842 | 13.33° C | 48% | 967.8 hPa | 0 mm | - | - | - |
| 1777737540 | 13.33° C | 49% | 967.8 hPa | 0 mm | - | - | - |
| 1777737238 | 13.33° C | 46% | 967.7 hPa | 0 mm | - | - | - |
| 1777736936 | 13.33° C | 47% | 967.6 hPa | 0 mm | - | - | - |
| 1777736633 | 13.33° C | 48% | 967.6 hPa | 0 mm | - | - | - |
| 1777736332 | 13.33° C | 49% | 967.7 hPa | 0 mm | - | - | - |
| 1777736030 | 13.33° C | 49% | 967.7 hPa | 0 mm | - | - | - |
| 1777735728 | 12.78° C | 46% | 967.6 hPa | 0 mm | - | - | - |
| 1777735426 | 12.78° C | 52% | 967.6 hPa | 0 mm | - | - | - |
| 1777735124 | 13.33° C | 51% | 967.7 hPa | 0 mm | - | - | - |
| 1777734822 | 13.33° C | 51% | 967.7 hPa | 0 mm | - | - | - |
| 1777734520 | 12.78° C | 50% | 967.8 hPa | 0 mm | - | - | - |
| 1777734218 | 12.22° C | 53% | 967.8 hPa | 0 mm | - | - | - |
| 1777733916 | 12.22° C | 54% | 967.8 hPa | 0 mm | - | - | - |
| 1777733614 | 12.22° C | 54% | 967.7 hPa | 0 mm | - | - | - |
| 1777733312 | 12.22° C | 56% | 967.7 hPa | 0 mm | - | - | - |
| 1777733010 | 12.22° C | 53% | 967.7 hPa | 0 mm | - | - | - |
| 1777732708 | 12.22° C | 53% | 967.6 hPa | 0 mm | - | - | - |
* Rain latest hour (hover to see other rain measurements)
** Current wind speed in m/s (hover to see current wind gust speed)